User: anonymous   Login
Location: Vancouver
(49.2500°N, 123.1330°W)
Time: 22:09:16
(UTC-07:00)
Language:

YAOGAN 6 - Orbit

View from above orbital plane
View from above orbital plane
View from above satellite
View from above satellite

Ground track
Ground track

The orbit data is extracted from the following two-line orbital elements,

1 34839U 09021A   16270.69366921  .00001260  00000-0  52532-4 0  9997
2 34839  97.1850 326.4355 0029492 171.9553 188.2165 15.25113670412429
Epoch (UTC): 26 September 2016 16:38:53
Eccentricity: 0.0029492
inclination: 97.1850°
perigee height: 470 km
apogee height: 511 km
right ascension of ascending node: 326.4355°
argument of perigee: 171.9553°
revolutions per day: 15.25113670
mean anomaly at epoch: 188.2165°
orbit number at epoch: 41242

The dashed part of the orbit path shows where the satellite is in the earth's shadow,  

DLR